Flag for Montenegro Weather past 2 weeks in Podgorica, Montenegro

Now
55 °F

More clouds than sun.


Feels Like: 55 °F
Forecast: 53 / 61 °F
Wind: 3 mph from Southwest

Location: Podgorica Titograd


UV Index: 0 (Low)

Visibility: N/A


Pressure: 29.80 "Hg

Humidity: 88%

Dew point: 52 °F

Location of PodgoricaLocation

Historic Weather in Podgorica

°F

Podgorica temperature yesterday

Maximum temperature yesterday: 57 °F (at 12:30 PM)
Minimum temperature yesterday: 50 °F (at 2:00 AM)
Average temperature yesterday: 52 °F

Past Weeks' High & Low Weather Summary

 TemperatureHumidityPressure
High75 °F (Apr 8, 3:00 PM)94% (Apr 5, 5:00 AM)30.09 "Hg (Apr 5, 5:00 AM)
Low41 °F (Apr 12, 5:00 AM)21% (Apr 10, 3:30 PM)29.65 "Hg (Apr 18, 6:30 AM)
Average57 °F62%29.90 "Hg
* Reported Apr 4 4:00 PM — Apr 19 4:30 PM, Podgorica, Weather by CustomWeather, © 2014

Note: Actual official high and low records may vary slightly from our data, if they occured in-between our weather recording intervals... More about our weather records

Advertising

Historic Weather Conditions — Data for Previous 24 hours

 ConditionsComfort  
Time TempWeatherWind HumidityBarometerVisibility
4:30 PM
Apr 19
55 °FMore clouds than sun.2 mph82%29.80 "HgN/A
4:00 PM55 °FMore clouds than sun.2 mph82%29.80 "HgN/A
3:30 PM55 °FMore clouds than sun.3 mph82%29.80 "HgN/A
3:00 PM55 °FMore clouds than sun.3 mph82%29.80 "HgN/A
2:30 PM55 °FMore clouds than sun.2 mph82%29.80 "HgN/A
2:00 PM54 °FMore clouds than sun.3 mph88%29.80 "HgN/A
1:30 PM54 °FMore clouds than sun.5 mph88%29.80 "HgN/A
1:00 PM54 °FLight rain. More clouds than sun.3 mph88%29.77 "HgN/A
12:30 PM54 °FLight rain. Mostly cloudy.3 mph88%29.77 "HgN/A
12:00 PM54 °FLight rain. Mostly cloudy.1 mph88%29.77 "HgN/A
11:30 AM54 °FMostly cloudy.2 mph88%29.77 "HgN/A
11:00 AM52 °FLight rain. Mostly cloudy.1 mph94%29.77 "HgN/A
10:30 AM52 °FMostly cloudy.2 mph88%29.77 "HgN/A
10:00 AM52 °FMostly cloudy.1 mph94%29.74 "HgN/A
9:30 AM52 °FLight rain. More clouds than sun.No wind88%29.74 "Hg4 mi
9:00 AM50 °FLight rain. More clouds than sun.1 mph94%29.74 "Hg4 mi
8:30 AM50 °FLight rain. More clouds than sun.1 mph94%29.74 "Hg4 mi
8:00 AM50 °FLight rain. More clouds than sun.2 mph94%29.71 "Hg5 mi
7:30 AM50 °FLight rain. Mostly cloudy.2 mph94%29.71 "Hg6 mi
7:00 AM50 °FMostly cloudy.2 mph94%29.71 "HgN/A
6:30 AM50 °FMostly cloudy.2 mph94%29.71 "HgN/A
6:00 AM50 °FMostly cloudy.1 mph94%29.71 "HgN/A
5:30 AM50 °FLight rain. Mostly cloudy.1 mph94%29.68 "HgN/A
5:00 AM50 °FLight rain. Mostly cloudy.No wind88%29.68 "HgN/A
4:30 AM50 °FLight rain. Mostly cloudy.1 mph88%29.68 "HgN/A
4:00 AM50 °FLight rain. Mostly cloudy.1 mph88%29.68 "HgN/A
3:30 AM50 °FLight rain. Mostly cloudy.No wind88%29.68 "HgN/A
3:00 AM50 °FMostly cloudy.1 mph88%29.68 "HgN/A
2:30 AM50 °FMostly cloudy.2 mph88%29.68 "HgN/A
2:00 AM50 °FMostly cloudy.No wind88%29.68 "HgN/A
1:30 AM50 °FMostly cloudy.1 mph88%29.68 "HgN/A
1:00 AM50 °FMostly cloudy.1 mph88%29.71 "HgN/A
12:30 AM50 °FMostly cloudy.3 mph88%29.71 "HgN/A
12:00 AM50 °FMostly cloudy.2 mph88%29.71 "HgN/A
11:30 PM
Apr 18
50 °FMostly cloudy.3 mph88%29.71 "HgN/A
11:00 PM50 °FMostly cloudy.2 mph94%29.68 "HgN/A
10:30 PM50 °FMostly cloudy.2 mph94%29.68 "Hg5 mi
10:00 PM50 °FMostly cloudy.No wind88%29.68 "Hg4 mi
9:30 PM50 °FMostly cloudy.3 mph88%29.68 "Hg4 mi
9:00 PM50 °FMostly cloudy.3 mph94%29.68 "Hg4 mi
8:30 PM50 °FMostly cloudy.5 mph94%29.68 "Hg4 mi
8:00 PM50 °FMostly cloudy.5 mph94%29.68 "Hg4 mi
7:30 PM52 °FMostly cloudy.6 mph88%29.68 "Hg4 mi
7:00 PM52 °FMostly cloudy.6 mph88%29.68 "Hg4 mi
6:30 PM52 °FLight rain. Mostly cloudy.7 mph88%29.68 "Hg4 mi
6:00 PM54 °FLight rain. Mostly cloudy.7 mph82%29.68 "Hg4 mi
5:30 PM54 °FLight rain. More clouds than sun.7 mph82%29.68 "Hg4 mi
5:00 PM54 °FLight rain. More clouds than sun.8 mph82%29.65 "HgN/A
Weather by CustomWeather, © 2014

See weather overview